Flag for U.S.A. Weather past 2 weeks in Panama City, Florida, U.S.A.

Now
87 °F

Sunny.


Feels Like: 96 °F
Forecast: 76 / 89 °F
Wind: 9 mph from West

Location: Tyndall Air Force Base

Current Time: Jul 7, 2015 at 1:03:40 PM

Latest Report: Jul 7, 2015 at 11:58 AM


Visibility: 10 mi

Pressure: 30.18 "Hg

Humidity: 66%

Dew point: 74 °F

Location of Panama CityLocation

Historic Weather in Panama City — Graph

°F

Panama City temperature yesterday

Maximum temperature yesterday: 84 °F (at 3:58 PM)
Minimum temperature yesterday: 71 °F (at 2:58 AM)
Average temperature yesterday: 78 °F

Past Weeks' High & Low Weather Summary

 TemperatureHumidityPressure
High92 °F (Jun 22, 11:58 AM)100% (Jun 23, 5:03 AM)30.23 "Hg (Jun 23, 5:03 AM)
Low71 °F (Jun 30, 11:58 PM)55% (Jul 4, 9:58 AM)29.94 "Hg (Jun 28, 2:58 AM)
Average82 °F80%30.08 "Hg
* Reported Jun 22 11:58 AM — Jul 7 11:58 AM, Panama City, Weather by CustomWeather, © 2015

Note: Actual official high and low records may vary slightly from our data, if they occured in-between our weather recording intervals... More about our weather records

Advertising

Panama City weather history for previous 24 hours

 ConditionsComfort  
Time TempWeatherWind HumidityBarometerVisibility
11:58 AM
Tue, Jul 7
87 °FSunny.9 mph66%30.18 "Hg10 mi
10:58 AM86 °FPassing clouds.9 mph69%30.19 "Hg10 mi
9:58 AM87 °FSunny.6 mph61%30.19 "Hg10 mi
8:58 AM84 °FSunny.No wind71%30.19 "Hg10 mi
7:58 AM82 °FSunny.No wind87%30.19 "Hg10 mi
6:58 AM76 °FSunny.No wind98%30.17 "Hg10 mi
5:58 AM74 °FSunny.No wind97%30.15 "Hg7 mi
4:58 AM73 °FClear.No wind97%30.14 "Hg10 mi
3:58 AM73 °FClear.No wind97%30.13 "Hg10 mi
2:58 AM73 °FClear.No wind96%30.13 "Hg10 mi
1:58 AM74 °FClear.No wind97%30.12 "Hg10 mi
12:58 AM74 °FClear.No wind96%30.12 "Hg10 mi
11:58 PM
Mon, Jul 6
74 °FClear.No wind95%30.12 "Hg10 mi
10:58 PM76 °FClear.No wind92%30.12 "Hg10 mi
9:58 PM76 °FClear.No wind92%30.12 "Hg10 mi
8:58 PM77 °FClear.No wind89%30.11 "Hg10 mi
7:58 PM81 °FClear.5 mph78%30.11 "Hg10 mi
6:58 PM83 °FSunny.7 mph72%30.11 "Hg10 mi
5:58 PM84 °FSunny.8 mph72%30.12 "Hg10 mi
4:58 PM84 °FSunny.7 mph73%30.13 "Hg10 mi
3:58 PM84 °FSunny.10 mph73%30.14 "Hg10 mi
2:58 PM84 °FSunny.6 mph72%30.16 "Hg10 mi
1:58 PM83 °FScattered clouds.8 mph75%30.18 "Hg10 mi
Weather by CustomWeather, © 2015

See weather overviewHow to use our weather pages